OPS 4682 DEB, 38417

Orbit data source: Space-Track

OPS 4682 DEB, 38417 is space debris in LEO originally from a launch on Sat, 03 Apr 1965 UTC launched from the Air Force Western Test Range (AFWTR). Debris objects in space refer to the collection of defunct objects orbiting the Earth. Examples of debris include non-operational satellites, rocket bodies, and fragments generated from explosions, collisions, or faulty payload assembly.

Loading next visibility...
Identifier
38417, 1965-027DW
Orbit
LEO
Country
Flag of USUS
Related business
Manufacturer
Unknown
Mission
Spacecraft
Bus & Motor
Unknown
Mass
Unknown
Launch date (UTC)
1965-04-03 (61 years ago)
Launch vehicle
Unknown
Launch site
Air Force Western Test Range (AFWTR)
Object type
Payload
Rocket body
Debris
Shape & HBR
Unknown shape, 0.1 m
Radar Cross Section
Medium (>0.1 m² and <1 m²)

Expand to show TLE details & history
Last TLE update: 17 hours ago

TLE from 17 hours ago
0 OPS 4682 DEB
1 38417U 65027DW  26235.33131127 -.00000176  00000-0 -63672-3 0  9995
2 38417  90.2535  13.8138 0030816 328.6750  31.2533 12.96699417615386
Epoch: 2026-08-23T07:57Z
TLE epoch observation values (Epoch: 2026-08-23T07:57:05.293Z)
Latitude
-0.00009°
Longitude
-77.08715°
Altitude
1,257.779 km
Speed
7.236 km/s
True Right ascension
00h 55m 15s
True Declination
0° 00' 00"
Sunlit
Object was in full shadow at epoch
Visualization orbit readout
Latitude
Unknown
Longitude
Unknown
Altitude
Unknown
Speed
Unknown
Apparent Right ascension
Unknown
Apparent Declination
Unknown
Sunlit
N/A
Visualization observer readout
Local Sidereal Time
15:53:55
Azimuth
Unknown
Elevation
Unknown
Doppler factor
Unknown
Orbital elements
Apogee altitude
1,295.753 km
Perigee altitude
1,248.603 km
Semi-major axis
7,650.315 km
Eccentricity
0.00308
Inclination
90.2535°
RAAN
13.8138°
Arg. of periapsis
328.675°
True anomaly
31.43711°
Mean anomaly
31.2533°
Eccentric anomaly
31.34515°
Mean motion
3.24358 °/min
Orbital period
110.99 mins
BSTAR
-0.00063672
Loading maneuver chart data...
Computing Atmospheric mass density...
Loading historical data...
Loading historical data...
Loading historical data...
Loading historical data...
Loading historical data...
Loading historical data...
Loading historical data...

Documentation

Showing up to 5 results
|